Details From YBMA - Mount Isa
To YNTN - Normanton
Flight Number -
Tags decoded
Created
Modified
Stats Distance 200 nm / 371 km
Max Altitude 0 ft / 0 m
Waypoints 2
Social Downloads 0
Likes 0
Share VATSIM

Download

Looking for another format? Having issues loading an existing format? Contact us
Advertisement - Login to hide

Notes

Requested: YBMA MA W793 SHINN/N0269F240 YNTN Unmatched points: SHINN/N0269F240

Route

YBMA YNTN

ID Type Via Altitude (ft/m) Position (lat/lon) Dist (leg/tot) Name
O YBMA APT - 0 / 0 -20.66640 / 139.48800 - / 0 nm Mount Isa
O YNTN APT - 0 / 0 -17.68710 / 141.07200 200 / 200 nm Normanton

Altitude Profile

Advertisement - Login to hide

Weather


0- 5 10 15 20 25 30 35+ Temperature / °C

Clouds and Precipitation
Forecast for 2020-04-01 18:00 UTC. Updated 42 minutes ago

Ground ~20,000 ft ~40,000 ft Winds

YBMA

Details ICAO YBMA (ISA)
Name Mount Isa
Region Australia
Timezone Australia/Brisbane (UTC+10.0)
Stats Elevation 1,121 ft / 342 m (AMSL)
Location -20.666400° 139.488000°
Runways 1
Magnetic Variation 5.582° E

METAR

YBMA 011600Z AUTO 00000KT 9999 // NCD 21/12 Q1011

Decode

TAF

TAF YBMA 011109Z 0112/0200 04005KT CAVOK

Decode

Departure Runways

ID Width Length Bearing (true/mag) Surface Threshold Overrun Markings Lighting
16 148 ft / 45 m 8,859 ft / 2,700 m 167.80° / 162.22° ASPHALT 210 ft / 64 m 79 ft / 24 m APP EDGE THRESHOLD
34 148 ft / 45 m 8,859 ft / 2,700 m 347.80° / 342.22° ASPHALT 213 ft / 65 m 49 ft / 15 m APP EDGE THRESHOLD

YNTN

Details ICAO YNTN (NTN)
Name Normanton
Region Australia
Timezone Australia/Brisbane (UTC+10.0)
Stats Elevation 36 ft / 11 m (AMSL)
Location -17.687100° 141.072000°
Runways 1
Magnetic Variation 5.543° E

METAR

YNTN 011600Z AUTO 31003KT 9999 // NCD 26/22 Q1009

Decode

TAF

Not found

Destination Runways

ID Width Length Bearing (true/mag) Surface Threshold Overrun Markings Lighting
14 98 ft / 30 m 5,476 ft / 1,669 m 146.83° / 141.29° ASPHALT 0 ft / 0 m 0 ft / 0 m VISUAL EDGE THRESHOLD
32 98 ft / 30 m 5,476 ft / 1,669 m 326.83° / 321.29° ASPHALT 0 ft / 0 m 0 ft / 0 m VISUAL EDGE THRESHOLD

Popular Alternatives